{"data":{"norad_id":54686,"epoch":"2026-05-25T05:23:43.865664Z","epoch_age_seconds":52739,"freshness":"FRESH","line1":"1 54686U 22167E   26145.22481326  .00009808  00000+0  30883-3 0  9992","line2":"2 54686  97.6848 312.5055 0006985 242.7550 117.2980 15.33121429191805","mean_motion":15.33121429,"eccentricity":0.0006985,"inclination_deg":97.6848,"raan_deg":312.5055,"arg_perigee_deg":242.755,"mean_anomaly_deg":117.298,"bstar":0.00030883,"rev_number":19180,"period_min":93.926023911835,"perigee_km":461.72508026009,"apogee_km":471.28704661972,"semimajor_km":6844.6430634399,"source":"CELESTRAK","updated_at":"2026-05-25T13:37:58.708587Z"}}